Location: Cz?stochówka
(50.8142°N, 19.0915°E)
Time: 15:51:40
(UTC+00:00)

COSMO-SKYMED 1 - Pass Details

Date: 13 January 2026
Orbit: 577 x 579 km, 97.9° (Epoch: 18 February)

Event Time Altitude Azimuth Distance (km) Brightness Sun altitude
Rises 05:35:27 0° 218° (SW) 2,792 5.8 -10.0°
Reaches altitude 10° 05:38:54 10° 249° (WSW) 1,900 4.6 -9.5°
Maximum altitude 05:40:33 12° 273° (W) 1,769 4.3 -9.2°
Enters shadow 05:41:14 12° 283° (WNW) 1,794 4.3 -9.1°
